Orbital Elements at Epoch 2459200.5 (2020-Dec-17.0) TDB
Reference: JPL 30 (heliocentric ecliptic J2000)
Element | Value | Uncertainty (1-sigma) | Units |
e | .08762516354474829 | 4.2062e-08 | |
a | 2.924472140177535 | 1.8678e-08 | au |
q | 2.668214790612418 | 1.2222e-07 | au |
i | 14.7899469085451 | 4.9772e-06 | deg |
node | 62.39733702557117 | 1.7414e-05 | deg |
peri | 271.6345801481451 | 3.3114e-05 | deg |
M | 240.7512480037018 | 2.9924e-05 | deg |
tp | 2459805.591429114664 (2022-Aug-14.09142911) | 0.00015326 | TDB |
period | 1826.71022408722 5.00 | 1.7501e-05 4.792e-08 | d yr |
n | .1970755926435386 | 1.8881e-09 | deg/d |
Q | 3.180729489742651 | 2.0315e-08 | au |
|
| | Orbit Determination Parameters
Additional Information
|